AMC-1 (GE-1) 1 24315C 96054A 22176.41666667 .00000158 00000+0 00000+0 0 1768 2 24315 5.6457 73.0895 0002989 13.3910 206.1431 1.00271586 19 AMC-3 (GE-3) 1 24936C 97050A 22176.41666667 -.00000169 00000+0 00000+0 0 1767 2 24936 4.5704 79.4134 0002675 18.6500 253.4469 1.00272333 19 ASTRA 1G 1 25071C 97076A 22176.41666667 .00000209 00000+0 00000+0 0 1760 2 25071 6.2708 68.2411 0003575 19.8105 354.8463 1.00271406 11 ASTRA 2A 1 25462C 98050A 22176.41666667 .00000160 00000+0 00000+0 0 1763 2 25462 3.4288 85.4775 0001879 332.6892 62.5343 1.00270844 10 AMC-4 (GE-4) 1 25954C 99060A 22176.41666667 .00000178 00000+0 00000+0 0 1760 2 25954 1.5418 91.7463 0002649 3.2065 193.6628 1.00271418 13 NSS-11 (AAP-1) 1 26554C 00059A 22176.41666667 .00000115 00000+0 00000+0 0 1768 2 26554 0.0143 11.8707 0002630 66.4567 161.2011 1.00271584 12 AMC-6 (GE-6) 1 26580C 00067A 22176.41666667 .00000195 00000+0 00000+0 0 1764 2 26580 0.0115 12.8655 0002250 77.9171 193.7256 1.00273182 16 ASTRA 2D 1 26638C 00081A 22176.41666667 .00000226 00000+0 00000+0 0 1769 2 26638 7.3185 60.2688 0001420 23.5521 3.3557 1.00269686 18 AMC-8 (GE-8) 1 26639C 00081B 22176.41666667 .00000178 00000+0 00000+0 0 1766 2 26639 2.4706 88.4935 0002652 7.8175 192.2069 1.00271335 19 ASTRA 2C 1 26853C 01025A 22176.41666667 -.00000167 00000+0 00000+0 0 1762 2 26853 4.5948 79.2183 0002583 27.6444 244.1643 1.00268719 10 ASTRA 3A 1 27400C 02015B 22176.41666667 -.00000107 00000+0 00000+0 0 1765 2 27400 7.4202 59.1287 0000788 25.9088 251.6949 1.00271279 13 NSS-7 1 27414C 02019A 22176.41666667 -.00000064 00000+0 00000+0 0 1766 2 27414 5.9259 71.2552 0002159 26.6432 305.6211 1.00271933 17 NSS-6 1 27603C 02057A 22176.41666667 .00000198 00000+0 00000+0 0 1765 2 27603 1.6333 91.5123 0003286 8.6932 153.7663 1.00272571 11 AMC-11 (GE-11) 1 28252C 04017A 22176.41666667 .00000159 00000+0 00000+0 0 1761 2 28252 0.0151 357.9404 0002265 99.1192 195.4726 1.00270663 16 AMC-15 1 28446C 04041A 22176.41666667 .00000001 00000+0 00000+0 0 1769 2 28446 0.0176 351.8055 0002369 92.8058 233.8522 1.00271891 14 NSS-10 (AMC-12) 1 28526C 05003A 22176.41666667 -.00000160 00000+0 00000+0 0 1764 2 28526 2.8077 87.2558 0002648 353.7422 305.0598 1.00273058 17 ASTRA 1KR 1 29055C 06012A 22176.41666667 .00000210 00000+0 00000+0 0 1768 2 29055 0.0408 280.4177 0001453 228.9696 293.3301 1.00270710 19 AMC-18 1 29644C 06054B 22176.41666667 -.00000126 00000+0 00000+0 0 1765 2 29644 0.0151 332.9639 0002283 119.1946 248.3596 1.00272314 13 ASTRA 1L 1 31306C 07016A 22176.41666667 .00000209 00000+0 00000+0 0 1763 2 31306 0.0532 318.0581 0001468 71.7099 52.9070 1.00275827 19 ASTRA 4A (SIRIUS 4) 1 32299C 07057A 22176.41666667 .00000122 00000+0 00000+0 0 1764 2 32299 0.0138 4.4301 0002543 87.6469 336.2643 1.00269609 16 AMC-21 1 33275C 08038B 22176.41666667 .00000126 00000+0 00000+0 0 1763 2 33275 0.0286 316.6550 0002467 145.5562 196.4091 1.00271584 10 ASTRA 1M 1 33436C 08057A 22176.41666667 .00000210 00000+0 00000+0 0 1767 2 33436 0.0467 96.4725 0004616 19.5999 326.6118 1.00277032 10 NSS-9 1 33749C 09008A 22176.41666667 .00000161 00000+0 00000+0 0 1766 2 33749 0.0181 25.9346 0001646 71.1361 149.5054 1.00273908 12 SES-7 (PROTOSTAR 2) 1 34941C 09027A 22176.41666667 -.00000255 00000+0 00000+0 0 1767 2 34941 0.0316 67.6211 0000368 82.3007 21.8477 1.00270990 11 NSS-12 1 36032C 09058A 22176.41666667 .00000162 00000+0 00000+0 0 1760 2 36032 0.0193 46.0270 0002540 46.2278 28.2586 1.00271669 12 SES-1 1 36516C 10016A 22176.41666667 -.00000024 00000+0 00000+0 0 1761 2 36516 0.0169 37.4420 0002506 56.6429 228.4320 1.00271671 11 ASTRA 3B 1 36581C 10021A 22176.41666667 .00000227 00000+0 00000+0 0 1763 2 36581 0.0690 314.0076 0003022 155.1128 337.8671 1.00273933 15 SES-3 1 37748C 11035A 22176.41666667 -.00000012 00000+0 00000+0 0 1768 2 37748 0.0184 14.3681 0002383 67.7770 238.3663 1.00272407 12 ASTRA 1N 1 37775C 11041A 22176.41666667 .00000210 00000+0 00000+0 0 1764 2 37775 0.0578 42.0570 0005180 21.5112 19.1264 1.00275694 13 SES-2 1 37809C 11049A 22176.41666667 -.00000106 00000+0 00000+0 0 1765 2 37809 0.0124 342.0458 0002695 115.4352 239.0493 1.00270043 13 SES-4 1 38087C 12007A 22176.41666667 -.00000076 00000+0 00000+0 0 1765 2 38087 0.0135 340.4851 0002074 117.7411 303.2974 1.00271205 14 SES-5 1 38652C 12036A 22176.41666667 .00000123 00000+0 00000+0 0 1767 2 38652 0.0582 297.7775 0001804 155.2629 335.4517 1.00273148 13 ASTRA 2F 1 38778C 12051A 22176.41666667 .00000240 00000+0 00000+0 0 1763 2 38778 0.0663 238.0137 0001846 293.0656 280.5991 1.00273623 13 SES-6 1 39172C 13026A 22176.41666667 -.00000171 00000+0 00000+0 0 1769 2 39172 0.0170 339.4026 0002054 103.1024 300.5066 1.00271740 14 ASTRA 2E 1 39285C 13056A 22176.41666667 .00000240 00000+0 00000+0 0 1763 2 39285 0.0560 12.1018 0002251 59.1958 20.6874 1.00270109 18 SES-8 1 39460C 13071A 22176.41666667 -.00003036 00000+0 00000+0 0 1762 2 39460 0.0357 262.3728 0002491 191.6040 64.5504 1.00270713 12 ASTRA 5B 1 39617C 14011B 22176.41666667 .00000245 00000+0 00000+0 0 1769 2 39617 0.0374 338.8294 0003409 122.5965 353.6014 1.00269193 19 ASTRA 2G 1 40364C 14089A 22176.41666667 .00000240 00000+0 00000+0 0 1760 2 40364 0.0314 1.6819 0004656 66.2563 23.7735 1.00269817 13 SES-9 1 41380C 16013A 22176.41666667 -.00000255 00000+0 00000+0 0 1765 2 41380 0.0297 300.1767 0001940 155.1949 76.4569 1.00272047 19 SES-10 1 42432C 17017A 22176.41666667 -.00000243 00000+0 00000+0 0 1766 2 42432 0.0080 7.0340 0002685 96.0168 253.5786 1.00271149 12 SES-15 1 42709C 17026A 22176.41666667 .00000150 00000+0 00000+0 0 1769 2 42709 0.0195 358.9433 0000399 58.4499 236.9712 1.00271342 15 SES-11 (ECHOSTAR 105) 1 42967C 17063A 22176.41666667 .00000010 00000+0 00000+0 0 1761 2 42967 0.0042 353.1519 0002563 132.9647 192.4628 1.00271828 13 SES-14 1 43175C 18012B 22176.41666667 -.00000184 00000+0 00000+0 0 1761 2 43175 0.0196 318.5119 0000721 141.5198 275.9864 1.00271871 14